EHI
3 3 2 2 3 4 6 7 6 4 3 3 3 2 1 0 0 1 2 2 1 0 0 1 1 1 2 1 0 0 0 0 0 0 0 0 0 0 0 0 0 0 0
3 3 2 2 3 5 6 7 7 5 3 3 3 3 1 0 0 0 1 1 0 0 0 0 0 1 2 1 0 0 0 0 0 0 0 0 0 0 0 0 0 0 0
3 3 2 1 3 6 7 7 7 6 4 3 3 3 2 1 0 0 0 0 0 0 0 0 0 1 1 1 0 0 0 0 0 0 0 0 0 0 0 0 0 0 0
3 3 2 1 2 5 6 7 8 7 5 3 3 3 3 1 0 0 0 0 0 0 0 0 0 0 1 1 0 0 0 0 0 0 0 0 0 0 0 0 0 0 0
3 3 2 1 2 4 6 7 7 6 5 4 3 3 3 2 1 0 0 0 1 1 0 0 0 0 1 1 0 0 0 0 0 0 0 0 0 0 0 0 0 0 0
2 1 1 2 3 5 6 7 6 4 4 4 3 4 4 3 2 1 0 1 1 1 1 0 0 0 1 1 0 0 0 0 0 0 0 0 0 0 0 0 0 0 0
2 1 1 4 5 6 7 7 4 2 3 4 3 3 4 3 3 2 1 1 1 1 1 0 0 0 0 0 0 0 0 0 0 0 0 0 0 0 0 0 0 0 0
2 1 2 5 6 6 7 7 5 2 2 3 4 3 3 4 4 2 1 1 0 0 1 1 1 0 0 0 0 0 0 0 0 0 0 0 0 0 0 0 0 0 0
1 0 2 5 6 6 6 6 5 2 1 2 3 3 4 4 4 3 1 0 0 0 0 1 2 1 0 0 0 0 0 0 0 0 0 0 0 0 0 0 0 0 0
0 0 2 5 6 6 5 5 4 2 0 1 2 3 3 4 3 2 1 0 0 0 0 1 2 1 0 0 0 0 0 0 0 0 0 0 0 0 0 0 0 0 0
0 1 3 5 6 6 4 2 1 0 0 0 1 3 3 2 1 1 0 0 0 0 0 0 1 1 0 0 0 0 0 0 0 0 0 0 0 0 0 0 0 0 0
1 2 3 5 6 5 3 1 0 0 0 0 1 2 2 1 0 0 0 0 0 0 0 0 0 0 0 0 0 0 0 0 0 0 0 0 0 0 0 0 0 0 0
2 2 2 4 4 3 1 0 0 0 0 0 0 1 1 0 0 0 0 0 0 0 0 0 0 0 0 0 0 0 0 0 0 0 0 0 0 0 0 0 0 0 0
3 2 1 2 3 1 0 0 0 0 0 0 0 0 0 0 0 0 0 0 0 0 0 0 0 0 0 0 0 0 0 0 0 0 0 0 0 0 0 0 0 0 0
3 2 1 1 2 1 0 0 0 0 0 0 0 0 0 0 0 0 0 0 0 0 0 0 0 0 0 0 0 0 0 0 0 0 0 0 0 0 0 0 0 0 0
3 3 1 1 2 2 1 0 0 0 0 0 0 0 0 0 0 0 0 0 0 0 0 0 0 0 0 0 0 0 0 0 0 0 0 0 0 0 0 0 0 0 0
3 3 3 3 3 3 1 0 0 0 0 0 0 0 0 0 0 0 0 0 0 0 0 0 0 0 0 0 0 0 0 0 0 0 0 0 0 0 0 0 0 0 0
3 3 3 3 3 3 2 1 0 0 0 0 0 0 0 0 0 0 0 0 0 0 0 0 0 0 0 0 0 0 0 0 0 0 0 0 0 0 0 0 0 0 0
1 2 2 3 3 4 3 2 1 0 0 0 0 0 0 0 0 0 0 0 0 0 0 0 0 0 0 0 0 0 0 0 0 0 0 0 0 0 0 0 0 0 0
0 1 1 1 3 3 3 3 2 1 0 0 0 0 0 0 0 0 0 0 0 0 0 0 0 0 0 0 0 0 0 0 0 0 0 0 0 0 0 0 0 0 0
0 0 0 1 2 3 3 4 3 3 2 1 0 0 0 0 0 0 0 0 0 0 0 0 0 0 0 0 0 0 0 0 0 0 0 0 0 0 0 0 0 0 0
0 0 0 0 1 3 4 5 5 5 4 1 0 0 0 0 0 0 0 0 0 0 0 0 0 0 0 0 0 0 0 0 0 0 0 0 0 0 0 0 0 0 0
0 0 0 0 1 2 4 6 6 6 5 2 0 0 0 0 0 0 0 0 0 0 0 0 0 0 0 0 0 0 0 0 0 0 0 0 0 0 0 0 0 0 0
0 0 0 0 0 1 3 5 6 6 5 4 1 0 0 0 0 0 0 0 0 0 0 0 0 0 0 0 0 0 0 0 0 0 0 0 0 0 0 0 0 0 0
0 0 0 0 0 0 1 3 3 3 3 3 2 0 0 0 0 0 0 0 0 0 0 0 0 0 0 0 0 0 0 0 0 0 0 0 0 0 0 0 0 0 0
0 0 0 0 0 0 0 1 1 1 1 1 1 0 0 0 0 0 0 0 0 0 0 0 0 0 0 0 0 0 0 0 0 0 0 0 0 0 0 0 0 0 0
Wind_Speed
1 1 2 4 6 7 8 8 9 9 9 10 10 10 10 10 11 11 11 11 12 13 13 14 14 14 14 15 15 15 15 15 15 15 15 15 16 16 16 16 14 11 17
4 3 4 5 6 7 8 8 9 8 8 9 10 10 10 10 10 10 10 11 12 12 12 12 13 13 14 15 15 15 15 15 15 14 13 12 13 15 15 15 14 11 16
5 3 4 5 7 7 8 8 8 8 8 8 9 9 10 9 10 10 10 10 11 11 11 12 12 13 13 14 15 15 15 14 14 12 10 6 9 14 15 15 15 15 15
5 4 3 5 7 7 8 8 8 8 8 8 8 9 9 9 9 10 10 10 10 11 11 11 11 12 12 13 14 14 14 13 12 10 6 5 6 13 14 14 14 15 15
5 4 4 6 6 7 8 8 8 8 8 8 8 8 8 9 9 9 10 10 10 10 10 10 10 11 11 12 13 13 13 12 11 8 5 5 5 12 13 14 14 14 14
4 3 4 6 6 7 8 8 7 8 8 8 7 8 8 8 9 9 10 10 10 10 9 9 10 11 11 12 12 12 13 12 9 5 5 4 5 11 13 13 13 14 14
5 3 4 6 7 7 7 7 7 7 7 7 7 7 7 8 8 9 9 10 10 10 10 10 11 11 11 11 12 11 11 10 6 5 4 4 6 11 12 12 13 14 14
6 4 4 6 6 7 7 7 7 7 7 7 7 7 7 8 8 8 9 10 10 10 11 11 11 11 11 11 11 11 10 8 6 5 4 4 8 12 12 12 13 13 13
5 4 3 3 4 5 6 6 6 6 6 7 7 7 7 8 8 8 9 9 9 10 10 10 10 11 11 11 11 10 10 8 5 3 4 3 8 11 12 12 12 12 12
5 4 3 3 3 3 3 5 5 6 6 6 6 7 7 7 7 7 7 8 9 9 9 9 10 10 10 10 10 10 9 7 4 4 2 4 9 11 11 11 11 11 12
3 3 3 2 2 2 2 3 4 5 5 5 5 6 6 4 4 4 6 7 8 8 9 9 9 9 9 9 9 9 7 3 3 3 2 6 8 10 11 10 10 10 10
3 2 2 2 2 2 2 2 2 2 2 3 3 4 3 3 3 4 6 7 7 7 8 9 9 9 7 4 6 6 3 4 3 2 3 7 8 9 10 10 10 10 9
4 3 2 2 2 2 2 1 1 1 2 2 3 3 3 3 3 3 2 3 4 5 4 5 5 4 3 3 3 3 3 3 2 2 2 6 8 9 8 9 9 9 8
3 3 2 2 2 2 2 2 2 1 1 1 2 3 3 2 2 2 2 2 2 2 3 3 2 3 4 3 3 3 3 2 2 1 2 5 6 8 8 7 8 8 8
3 2 2 2 2 2 3 2 2 2 2 1 1 3 4 3 3 2 2 2 2 1 2 2 2 3 3 3 3 3 3 2 2 2 1 4 5 6 7 7 7 7 7
3 3 2 3 2 2 2 2 2 2 2 2 1 2 4 3 3 3 2 2 1 1 2 2 3 3 3 2 3 2 2 2 2 2 1 2 4 5 6 7 7 7 7
3 3 3 3 3 3 3 2 2 2 2 2 1 2 4 3 3 3 3 2 2 2 2 2 3 3 3 3 3 2 2 2 2 2 1 1 1 3 5 6 6 6 7
3 3 3 2 3 3 2 2 2 2 2 2 2 2 3 4 4 3 3 2 2 2 2 3 3 2 2 2 2 1 1 1 1 1 1 1 1 1 2 5 5 5 5
4 4 3 3 3 3 3 2 2 2 2 1 2 2 3 4 4 4 3 2 2 2 2 3 3 2 2 2 1 1 1 1 1 1 1 1 1 1 1 2 3 3 3
4 3 3 3 3 3 2 2 2 2 1 1 1 1 3 3 4 4 3 3 3 3 2 2 3 2 2 2 2 2 1 1 0 1 1 1 1 1 1 1 1 1 2
3 3 3 3 2 2 2 2 2 2 2 1 1 1 3 3 4 4 3 3 3 3 3 3 3 3 2 2 2 2 2 2 1 1 0 1 0 1 1 1 1 1 1
4 3 3 4 3 3 2 3 2 2 2 2 2 1 2 3 3 4 4 4 3 3 3 3 3 2 1 1 2 2 0 1 2 1 1 1 1 1 1 2 2 2 1
4 4 4 4 4 3 2 2 2 1 1 1 1 1 1 3 3 4 4 4 4 4 4 4 4 4 3 1 1 2 3 3 1 2 2 1 0 1 1 1 1 2 2
4 3 3 4 4 3 3 3 4 3 2 2 2 2 2 2 3 3 5 5 4 3 4 4 3 3 4 3 1 0 1 2 2 1 2 1 1 2 2 1 2 2 2
4 3 3 3 3 3 3 4 4 3 2 2 2 2 2 3 3 3 4 4 4 3 4 4 4 3 3 3 2 1 1 1 1 2 2 2 2 2 2 2 2 2 2
1 2 2 2 2 2 3 3 4 4 3 3 3 3 2 2 2 3 3 4 4 4 4 4 4 4 3 3 2 2 2 2 2 2 2 2 2 2 2 2 2 2 2
Wind_Direction
177 182 142 117 109 102 99 95 92 96 94 90 85 82 82 80 78 76 76 76 74 76 82 85 85 84 83 83 83 85 86 85 84 84 82 84 86 86 85 83 82 80 85
154 160 135 120 112 106 99 95 93 95 95 92 88 84 83 82 80 78 78 78 79 79 82 84 86 86 86 85 85 85 84 83 85 81 79 81 85 88 88 86 85 87 87
127 133 128 116 115 110 105 100 97 98 98 94 92 89 86 83 81 82 83 81 81 82 83 85 85 86 87 87 86 85 84 83 85 81 77 77 87 90 90 90 89 88 88
126 123 120 105 112 111 109 104 101 98 98 97 94 91 88 85 81 82 85 83 83 84 86 87 86 87 87 88 87 86 85 84 82 78 75 74 87 95 94 93 93 91 90
115 115 121 109 108 112 110 107 105 101 98 98 96 94 92 89 85 83 82 84 83 82 86 93 92 88 89 91 89 87 83 83 79 73 73 73 83 96 96 94 95 94 91
107 109 124 113 110 107 111 108 108 103 99 100 99 97 97 94 89 86 84 82 80 79 87 99 100 95 92 91 89 86 86 82 76 71 70 76 86 96 96 95 96 96 94
110 102 114 112 111 107 104 107 107 105 100 100 101 99 100 98 96 91 87 83 81 77 85 100 101 98 96 92 88 87 86 78 78 76 68 78 92 99 98 97 96 97 96
117 109 107 108 106 104 103 97 102 104 100 99 100 100 99 98 98 95 92 88 83 79 80 91 95 96 96 92 89 89 84 78 81 86 75 81 101 101 99 97 96 96 97
110 105 96 107 104 98 100 101 95 99 98 95 96 95 94 91 94 96 94 92 89 84 81 85 88 92 91 87 86 85 78 68 68 81 86 85 102 106 101 98 97 97 99
101 100 98 93 92 95 104 99 93 90 97 97 96 94 91 90 93 92 91 94 93 90 87 87 87 88 87 84 84 82 74 67 69 73 81 99 103 107 106 103 100 100 98
103 106 106 101 93 88 94 94 91 89 93 96 95 93 88 83 85 90 84 88 91 91 89 88 88 85 82 80 80 74 67 64 69 70 86 105 107 107 107 107 106 104 103
151 143 126 117 109 99 95 89 92 82 84 88 93 95 88 86 81 81 88 87 86 86 88 88 84 80 72 66 68 64 64 66 62 64 88 109 112 111 109 107 106 106 107
163 152 134 131 126 115 113 109 97 89 82 86 102 103 100 94 89 78 84 83 83 82 77 76 71 67 70 67 63 62 66 66 60 61 85 107 115 115 113 112 112 111 109
151 158 146 138 133 129 127 126 118 111 106 97 121 120 117 113 105 100 94 84 77 78 87 77 78 81 82 79 77 76 70 72 69 55 84 100 115 120 121 121 120 118 119
159 164 160 147 147 143 133 138 125 135 135 124 134 134 128 130 129 126 112 100 86 87 99 99 96 91 87 83 79 83 78 74 78 72 71 98 106 122 131 130 124 123 122
180 180 173 163 162 148 141 146 148 145 140 131 139 139 130 134 140 137 126 113 104 105 101 110 109 101 96 90 79 73 72 63 70 73 65 88 103 119 130 135 132 129 127
192 184 180 174 161 156 150 154 144 146 145 149 149 149 137 134 140 138 138 134 126 109 102 100 95 87 92 86 75 64 70 69 75 70 61 49 89 118 126 133 136 132 133
186 186 186 170 165 167 161 159 149 148 142 152 146 154 146 139 138 136 139 142 131 121 119 122 109 97 88 87 81 60 62 75 85 90 80 67 67 84 117 124 129 136 137
190 185 182 171 171 175 169 160 148 145 145 150 148 154 158 145 143 142 143 139 136 129 126 133 121 121 114 95 84 63 53 64 81 100 106 97 98 110 110 116 115 126 142
181 176 174 172 171 167 161 150 141 135 143 142 160 155 161 155 149 143 141 134 133 132 128 132 130 119 128 128 95 55 25 7 346 166 162 137 130 148 135 126 127 138 148
174 173 172 168 169 155 163 172 172 182 177 161 172 156 166 161 155 148 146 148 147 146 148 142 134 129 125 127 96 49 7 4 344 289 205 163 179 193 162 156 162 159 198
190 189 182 181 176 176 186 190 186 177 184 168 158 158 163 158 159 159 155 160 159 149 139 138 135 144 152 151 128 122 31 325 333 325 313 198 208 209 190 185 171 171 187
200 201 197 191 181 183 175 150 127 111 112 139 159 188 192 163 164 166 162 160 164 159 163 164 158 155 169 197 167 151 161 207 281 298 296 278 264 217 212 195 189 193 200
210 205 198 191 183 179 169 167 164 169 184 190 189 195 202 185 167 176 167 165 169 170 171 177 168 167 167 180 211 295 213 161 168 242 294 296 294 270 252 233 214 214 212
203 193 192 183 179 176 176 179 180 183 191 172 164 181 194 191 179 179 174 173 175 179 181 181 176 174 173 180 186 182 132 32 174 175 236 270 288 269 262 251 231 221 223
185 180 170 170 175 173 180 183 190 191 187 169 175 188 198 200 195 185 180 185 186 187 190 194 189 185 191 185 186 180 176 178 191 186 210 232 254 266 274 254 238 227 220